Starlink 5577

operational
NORAD ID: 55751 Int'l Des: 2023-028 Owner: SPXS Country: US Constellation: starlink
LEOCIRCULAR

Über Starlink 5577

Beschreibung wird geladen...

Live-Position

3D-Globus wird geladen...

Nächste Überflüge

Höhenverlauf

Altitude vs Time

uPlot chart will show altitude changes over time

Zweizeiliger Elementsatz

1 55751U 23028L 25259.88502433 .00000999 00000-0 91486-4 0 9993
2 55751 69.9990 322.7728 0003151 269.6986 90.3812 14.98323234140001
Epoch: 16. Sept. 2025 • Age: 30 hours

Aktueller Status

Höhe 593.5 km
Geschwindigkeit 7.56 km/s
Subsatellitenpunkt -62.96°S, 133.37°W
Startdatum 3. März 2023
Alter 2.5 years
Typ internet

Technische Details

Klassifizierung Payload
Masse 305.00 kg
Trockenmasse 290.00 kg
Gesamtmasse 305.00 kg
Länge 0.20 m
Durchmesser 2.80 m
Spannweite 9.00 m
Form Box + pan
Hersteller SPXS
Bus-Typ Starlink
Phasenstatus In Orbit
Besitzer/Staat SPXS/US

Große Konstellationen

Loading constellations...